This is the latest recevied weather packets stored in our database for station/object KF4CQ. If no packets are shown the sender has not sent any weather packets the latest 10 day(s).
| Time | Temp. | Humidity | Pressure | Rain* | Wind** | Luminosity | Snow |
|---|---|---|---|---|---|---|---|
| 1778159728 | 27.22° C | 74% | 1017 hPa | 0 mm | - | 220 W/m² | - |
| 1778159426 | 26.67° C | 74% | 1017.1 hPa | 0 mm | - | 176 W/m² | - |
| 1778159122 | 26.67° C | 74% | 1016.7 hPa | 0 mm | - | 119 W/m² | - |
| 1778158821 | 27.22° C | 73% | 1016.7 hPa | 0 mm | - | 79 W/m² | - |
| 1778158519 | 26.67° C | 74% | 1016.7 hPa | 0 mm | - | 68 W/m² | - |
| 1778158216 | 26.11° C | 75% | 1016.7 hPa | 0 mm | - | 61 W/m² | - |
| 1778157912 | 26.11° C | 76% | 1017 hPa | 0 mm | - | 51 W/m² | - |
| 1778157610 | 25.56° C | 76% | 1016.9 hPa | 0 mm | - | 48 W/m² | - |
| 1778157308 | 25° C | 78% | 1016.8 hPa | 0 mm | - | 52 W/m² | - |
| 1778157004 | 25° C | 79% | 1016.8 hPa | 0 mm | - | 40 W/m² | - |
| 1778156699 | 24.44° C | 81% | 1016.8 hPa | 0 mm | - | 38 W/m² | - |
| 1778156396 | 23.89° C | 82% | 1016.7 hPa | 0 mm | - | 38 W/m² | - |
| 1778156091 | 23.89° C | 85% | 1016.6 hPa | 0 mm | - | 35 W/m² | - |
| 1778155788 | 23.33° C | 85% | 1016.7 hPa | 0 mm | - | 34 W/m² | - |
| 1778155484 | 22.78° C | 87% | 1016.8 hPa | 0 mm | - | 32 W/m² | - |
| 1778155181 | 22.22° C | 88% | 1016.7 hPa | 0 mm | - | 30 W/m² | - |
| 1778154877 | 21.67° C | 89% | 1016.6 hPa | 0 mm | - | 27 W/m² | - |
| 1778154573 | 21.11° C | 91% | 1016.8 hPa | 0 mm | - | 23 W/m² | - |
| 1778154269 | 20.56° C | 92% | 1016.7 hPa | 0 mm | - | 19 W/m² | - |
| 1778153967 | 20.56° C | 92% | 1016.9 hPa | 0 mm | - | 17 W/m² | - |
| 1778153663 | 20.56° C | 92% | 1016.9 hPa | 0 mm | - | 16 W/m² | - |
| 1778153361 | 20.56° C | 93% | 1016.8 hPa | 0 mm | - | 16 W/m² | - |
| 1778153059 | 20.56° C | 92% | 1016.7 hPa | 0 mm | - | 15 W/m² | - |
| 1778152755 | 20.56° C | 93% | 1016.4 hPa | 0 mm | - | 14 W/m² | - |
| 1778152453 | 20.56° C | 94% | 1016.5 hPa | 0 mm | - | 12 W/m² | - |
* Rain latest hour (hover to see other rain measurements)
** Current wind speed in m/s (hover to see current wind gust speed)